Time,TemperatureF,DewpointF,PressureIn,WindDirection,WindDirectionDegrees,WindSpeedMPH,WindSpeedGustMPH,Humidity,HourlyPrecipIn,Conditions,Clouds,dailyrainin,SoftwareType,DateUTC
2014-12-17 00:04:00,35.7,34.4,29.84,SSE,166,0.0,0.0,95,0.00,,-RA,0.00,VWS V14.01,2014-12-17 05:04:00,
2014-12-17 00:09:00,35.6,34.3,29.84,West,269,0.0,0.0,95,0.00,,-RA,0.00,VWS V14.01,2014-12-17 05:09:00,
2014-12-17 00:14:00,35.5,34.2,29.85,SE,142,0.0,0.0,95,0.00,,-RA,0.00,VWS V14.01,2014-12-17 05:14:00,
2014-12-17 00:19:00,35.3,34.0,29.85,WSW,250,0.0,0.0,95,0.00,,-RA,0.00,VWS V14.01,2014-12-17 05:19:00,
2014-12-17 00:24:00,35.2,33.9,29.85,SSW,194,0.0,0.0,95,0.00,,-RA,0.00,VWS V14.01,2014-12-17 05:24:00,
2014-12-17 00:29:00,35.1,33.8,29.85,SW,214,0.0,0.0,95,0.00,,-RA,0.00,VWS V14.01,2014-12-17 05:29:00,
2014-12-17 00:34:00,35.0,33.7,29.85,SSE,155,0.0,0.0,95,0.00,,-RA,0.00,VWS V14.01,2014-12-17 05:34:00,
2014-12-17 00:39:00,34.8,33.5,29.85,South,187,0.0,0.0,95,0.00,,-RA,0.00,VWS V14.01,2014-12-17 05:39:00,
2014-12-17 00:44:00,34.8,33.5,29.85,SSW,198,0.0,0.0,95,0.00,,-RA,0.00,VWS V14.01,2014-12-17 05:44:00,
2014-12-17 00:49:00,34.7,33.4,29.85,SW,232,0.0,0.0,95,0.00,,-RA,0.00,VWS V14.01,2014-12-17 05:49:00,
2014-12-17 00:54:00,34.6,33.3,29.85,West,267,0.0,0.0,95,0.00,,-RA,0.00,VWS V14.01,2014-12-17 05:54:00,
2014-12-17 00:59:00,34.5,33.2,29.85,SSE,163,0.0,0.0,95,0.00,,OVC012,0.00,VWS V14.01,2014-12-17 05:59:00,
2014-12-17 01:04:00,34.4,33.1,29.86,West,263,0.0,0.0,95,0.00,,OVC012,0.00,VWS V14.01,2014-12-17 06:04:00,
2014-12-17 01:09:00,34.2,32.9,29.86,SW,222,0.0,0.0,95,0.00,,OVC012,0.00,VWS V14.01,2014-12-17 06:09:00,
2014-12-17 01:14:00,34.1,32.8,29.86,SSW,200,0.0,0.0,95,0.00,,OVC012,0.00,VWS V14.01,2014-12-17 06:14:00,
2014-12-17 01:19:00,34.0,32.7,29.86,West,271,0.0,0.0,95,0.00,,OVC012,0.00,VWS V14.01,2014-12-17 06:19:00,
2014-12-17 01:24:00,33.9,32.6,29.86,South,179,0.0,0.0,95,0.00,,OVC012,0.00,VWS V14.01,2014-12-17 06:24:00,
2014-12-17 01:29:00,33.7,32.4,29.86,South,180,0.0,0.0,95,0.00,,OVC012,0.00,VWS V14.01,2014-12-17 06:29:00,
2014-12-17 01:34:00,33.5,32.2,29.87,SW,215,0.0,0.0,95,0.00,,OVC012,0.00,VWS V14.01,2014-12-17 06:34:00,
2014-12-17 01:39:00,33.4,32.1,29.87,WSW,254,0.0,0.0,95,0.00,,OVC012,0.00,VWS V14.01,2014-12-17 06:39:00,
2014-12-17 01:44:00,33.4,32.1,29.87,SSW,192,0.0,0.0,95,0.00,,OVC012,0.00,VWS V14.01,2014-12-17 06:44:00,
2014-12-17 01:49:00,33.3,32.0,29.87,SSW,195,0.0,0.0,95,0.00,,OVC012,0.00,VWS V14.01,2014-12-17 06:49:00,
2014-12-17 01:54:00,33.2,31.9,29.87,SSE,168,0.0,0.0,95,0.00,,OVC012,0.00,VWS V14.01,2014-12-17 06:54:00,
2014-12-17 01:59:00,33.1,31.8,29.88,South,177,0.0,0.0,95,0.01,,,0.01,VWS V14.01,2014-12-17 06:59:00,
2014-12-17 02:04:00,33.0,31.7,29.88,WSW,241,0.0,0.0,95,0.01,,,0.01,VWS V14.01,2014-12-17 07:04:00,
2014-12-17 02:10:00,33.0,31.7,29.88,SW,232,0.0,0.0,95,0.01,,,0.01,VWS V14.01,2014-12-17 07:10:00,
2014-12-17 02:15:00,33.0,31.7,29.88,SSE,154,0.0,0.0,95,0.01,,,0.01,VWS V14.01,2014-12-17 07:15:00,
2014-12-17 02:20:00,32.9,31.6,29.89,WSW,241,0.0,0.0,95,0.01,,,0.01,VWS V14.01,2014-12-17 07:20:00,
2014-12-17 02:25:00,32.9,31.6,29.89,SSW,198,0.0,0.0,95,0.01,,,0.01,VWS V14.01,2014-12-17 07:25:00,
2014-12-17 02:30:00,32.8,31.5,29.89,SW,231,0.0,0.0,95,0.01,,,0.01,VWS V14.01,2014-12-17 07:30:00,
2014-12-17 02:35:00,32.6,31.3,29.89,East,95,0.0,0.0,95,0.01,,,0.01,VWS V14.01,2014-12-17 07:35:00,
2014-12-17 02:40:00,32.6,31.3,29.89,East,92,0.0,0.0,95,0.01,,,0.01,VWS V14.01,2014-12-17 07:40:00,
2014-12-17 02:45:00,32.5,31.0,29.89,South,174,0.0,0.0,94,0.01,,,0.01,VWS V14.01,2014-12-17 07:45:00,
2014-12-17 02:50:00,32.4,30.9,29.89,SSW,192,0.0,0.0,94,0.01,,,0.01,VWS V14.01,2014-12-17 07:50:00,
2014-12-17 02:55:00,32.3,30.8,29.89,South,176,0.0,0.0,94,0.01,,,0.01,VWS V14.01,2014-12-17 07:55:00,
2014-12-17 03:00:00,32.3,30.5,29.90,SW,219,0.0,0.0,93,0.00,,OVC017,0.01,VWS V14.01,2014-12-17 08:00:00,
2014-12-17 03:05:00,32.1,30.3,29.90,West,263,0.0,0.0,93,0.00,,OVC017,0.01,VWS V14.01,2014-12-17 08:05:00,
2014-12-17 03:10:00,32.0,30.2,29.90,SE,138,0.0,0.0,93,0.00,,OVC017,0.01,VWS V14.01,2014-12-17 08:10:00,
2014-12-17 03:15:00,32.0,30.2,29.89,South,186,0.0,0.0,93,0.00,,OVC017,0.01,VWS V14.01,2014-12-17 08:15:00,
2014-12-17 03:20:00,32.0,30.2,29.90,SSW,196,0.0,0.0,93,0.00,,OVC017,0.01,VWS V14.01,2014-12-17 08:20:00,
2014-12-17 03:25:00,31.9,29.8,29.89,South,172,0.0,0.0,92,0.00,,OVC017,0.01,VWS V14.01,2014-12-17 08:25:00,
2014-12-17 03:30:00,31.9,29.8,29.90,West,265,0.0,0.0,92,0.00,,OVC017,0.01,VWS V14.01,2014-12-17 08:30:00,
2014-12-17 03:35:00,31.9,29.8,29.90,SW,228,0.0,0.0,92,0.00,,OVC017,0.01,VWS V14.01,2014-12-17 08:35:00,
2014-12-17 03:40:00,31.9,29.8,29.90,SSW,211,0.0,0.0,92,0.00,,OVC017,0.01,VWS V14.01,2014-12-17 08:40:00,
2014-12-17 03:45:00,31.8,29.8,29.90,WSW,256,0.0,0.0,92,0.00,,OVC017,0.01,VWS V14.01,2014-12-17 08:45:00,
2014-12-17 03:50:00,31.8,29.8,29.90,SSW,201,0.0,0.0,92,0.00,,OVC017,0.01,VWS V14.01,2014-12-17 08:50:00,
2014-12-17 03:55:00,31.8,29.8,29.90,SW,229,0.0,0.0,92,0.00,,OVC017,0.01,VWS V14.01,2014-12-17 08:55:00,
2014-12-17 04:00:00,31.8,29.8,29.90,WSW,245,0.0,0.0,92,0.00,,OVC015,0.01,VWS V14.01,2014-12-17 09:00:00,
2014-12-17 04:05:00,31.8,29.8,29.90,SSW,210,0.0,0.0,92,0.00,,OVC015,0.01,VWS V14.01,2014-12-17 09:05:00,
2014-12-17 04:10:00,31.8,30.0,29.90,SSW,196,0.0,0.0,93,0.00,,OVC013,0.01,VWS V14.01,2014-12-17 09:10:00,
2014-12-17 04:15:00,31.7,29.9,29.90,SSE,160,0.0,0.0,93,0.00,,OVC013,0.01,VWS V14.01,2014-12-17 09:15:00,
2014-12-17 04:20:00,31.8,30.0,29.91,WSW,246,0.0,0.0,93,0.00,,OVC013,0.01,VWS V14.01,2014-12-17 09:20:00,
2014-12-17 04:25:00,31.7,29.9,29.91,SSW,206,0.0,0.0,93,0.00,,OVC013,0.01,VWS V14.01,2014-12-17 09:25:00,
2014-12-17 04:30:00,31.7,29.6,29.91,West,259,0.0,0.0,92,0.00,,OVC013,0.01,VWS V14.01,2014-12-17 09:30:00,
2014-12-17 04:35:00,31.7,29.4,29.91,SSW,195,0.0,0.0,91,0.00,,OVC013,0.01,VWS V14.01,2014-12-17 09:35:00,
2014-12-17 04:41:00,31.6,29.0,29.91,SSW,196,0.0,0.0,90,0.00,,OVC015,0.01,VWS V14.01,2014-12-17 09:41:00,
2014-12-17 04:46:00,31.6,29.0,29.91,NW,313,0.0,0.0,90,0.00,,OVC015,0.01,VWS V14.01,2014-12-17 09:46:00,
2014-12-17 04:51:00,31.5,28.6,29.92,West,266,0.0,0.0,89,0.00,,OVC015,0.01,VWS V14.01,2014-12-17 09:51:00,
2014-12-17 04:56:00,31.4,28.3,29.92,NW,304,0.0,0.0,88,0.00,,OVC015,0.01,VWS V14.01,2014-12-17 09:56:00,
2014-12-17 05:01:00,31.3,28.2,29.92,SSE,155,0.0,0.0,88,0.00,,OVC017,0.01,VWS V14.01,2014-12-17 10:01:00,
2014-12-17 05:06:00,31.2,28.1,29.92,WNW,288,0.0,0.0,88,0.00,,OVC017,0.01,VWS V14.01,2014-12-17 10:06:00,
2014-12-17 05:11:00,31.1,28.2,29.92,South,190,0.0,0.0,89,0.00,,OVC017,0.01,VWS V14.01,2014-12-17 10:11:00,
2014-12-17 05:16:00,31.1,28.2,29.92,ESE,121,0.0,0.0,89,0.00,,OVC017,0.01,VWS V14.01,2014-12-17 10:16:00,
2014-12-17 05:21:00,31.0,28.1,29.92,South,173,0.0,0.0,89,0.00,,OVC017,0.01,VWS V14.01,2014-12-17 10:21:00,
2014-12-17 05:26:00,31.0,28.1,29.92,SSW,200,0.0,0.0,89,0.00,,OVC017,0.01,VWS V14.01,2014-12-17 10:26:00,
2014-12-17 05:31:00,31.0,28.1,29.92,SSW,209,0.0,0.0,89,0.00,,OVC017,0.01,VWS V14.01,2014-12-17 10:31:00,
2014-12-17 05:36:00,31.0,28.1,29.93,West,268,0.0,0.0,89,0.00,,OVC017,0.01,VWS V14.01,2014-12-17 10:36:00,
2014-12-17 05:41:00,31.1,28.2,29.93,NE,37,0.0,0.0,89,0.00,,OVC017,0.01,VWS V14.01,2014-12-17 10:41:00,
2014-12-17 05:46:00,31.1,28.2,29.93,SSW,205,0.0,0.0,89,0.00,,OVC017,0.01,VWS V14.01,2014-12-17 10:46:00,
2014-12-17 05:51:00,31.0,27.9,29.94,South,169,0.0,0.0,88,0.00,,OVC017,0.01,VWS V14.01,2014-12-17 10:51:00,
2014-12-17 05:56:00,31.0,27.9,29.94,SSW,192,0.0,0.0,88,0.00,,OVC017,0.01,VWS V14.01,2014-12-17 10:56:00,
2014-12-17 06:01:00,31.0,27.9,29.94,South,170,0.0,0.0,88,0.00,,OVC016,0.01,VWS V14.01,2014-12-17 11:01:00,
2014-12-17 06:06:00,31.0,27.9,29.94,SE,126,0.0,0.0,88,0.00,,OVC016,0.01,VWS V14.01,2014-12-17 11:06:00,
2014-12-17 06:11:00,31.0,27.9,29.94,South,188,0.0,0.0,88,0.00,,OVC016,0.01,VWS V14.01,2014-12-17 11:11:00,
2014-12-17 06:16:00,31.0,27.6,29.95,SSW,210,0.0,0.0,87,0.00,,OVC016,0.01,VWS V14.01,2014-12-17 11:16:00,
2014-12-17 06:21:00,31.0,27.6,29.94,SW,223,0.0,0.0,87,0.00,,OVC016,0.01,VWS V14.01,2014-12-17 11:21:00,
2014-12-17 06:26:00,31.0,27.6,29.95,SSW,205,0.0,0.0,87,0.00,,OVC016,0.01,VWS V14.01,2014-12-17 11:26:00,
2014-12-17 06:31:00,30.9,27.5,29.95,West,267,0.0,0.0,87,0.00,,OVC016,0.01,VWS V14.01,2014-12-17 11:31:00,
2014-12-17 06:36:00,30.8,27.4,29.95,SW,232,0.0,0.0,87,0.00,,OVC016,0.01,VWS V14.01,2014-12-17 11:36:00,
2014-12-17 06:41:00,30.7,27.3,29.96,South,186,0.0,0.0,87,0.00,,OVC016,0.01,VWS V14.01,2014-12-17 11:41:00,
2014-12-17 06:46:00,30.6,26.9,29.96,SSW,195,0.0,0.0,86,0.00,,OVC016,0.01,VWS V14.01,2014-12-17 11:46:00,
2014-12-17 06:51:00,30.5,27.1,29.96,SSW,195,0.0,0.0,87,0.00,,OVC016,0.01,VWS V14.01,2014-12-17 11:51:00,
2014-12-17 06:56:00,30.3,26.9,29.97,South,176,0.0,0.0,87,0.00,,OVC016,0.01,VWS V14.01,2014-12-17 11:56:00,
2014-12-17 07:01:00,30.2,27.1,29.97,South,180,0.0,0.0,88,0.00,,OVC015,0.01,VWS V14.01,2014-12-17 12:01:00,
2014-12-17 07:06:00,30.2,27.1,29.97,East,82,0.0,0.0,88,0.00,,OVC015,0.01,VWS V14.01,2014-12-17 12:06:00,
2014-12-17 07:11:00,30.1,27.0,29.98,SSW,200,0.0,0.0,88,0.00,,OVC015,0.01,VWS V14.01,2014-12-17 12:11:00,
2014-12-17 07:16:00,30.0,26.9,29.97,SSE,153,0.0,0.0,88,0.00,,OVC015,0.01,VWS V14.01,2014-12-17 12:16:00,
2014-12-17 07:22:00,30.0,26.9,29.98,SW,221,0.0,0.0,88,0.00,,OVC015,0.01,VWS V14.01,2014-12-17 12:22:00,
2014-12-17 07:27:00,30.0,26.9,29.98,East,101,0.0,0.0,88,0.00,,OVC015,0.01,VWS V14.01,2014-12-17 12:27:00,
2014-12-17 07:32:00,30.0,26.9,29.99,SSW,209,0.0,0.0,88,0.00,,OVC015,0.01,VWS V14.01,2014-12-17 12:32:00,
2014-12-17 07:37:00,29.9,26.5,29.99,SSE,164,0.0,0.0,87,0.00,,OVC015,0.01,VWS V14.01,2014-12-17 12:37:00,
2014-12-17 07:42:00,29.9,26.5,29.99,SSE,154,0.0,0.0,87,0.00,,OVC015,0.01,VWS V14.01,2014-12-17 12:42:00,
2014-12-17 07:47:00,29.9,26.5,29.99,West,267,0.0,0.0,87,0.00,,OVC015,0.01,VWS V14.01,2014-12-17 12:47:00,
2014-12-17 07:52:00,29.8,26.1,29.99,SSE,168,0.0,0.0,86,0.00,,OVC015,0.01,VWS V14.01,2014-12-17 12:52:00,
2014-12-17 07:57:00,29.8,26.1,30.00,SSE,150,0.0,0.0,86,0.00,,OVC015,0.01,VWS V14.01,2014-12-17 12:57:00,
2014-12-17 08:02:00,29.7,26.0,30.00,SSE,161,0.0,0.0,86,0.00,,OVC018,0.01,VWS V14.01,2014-12-17 13:02:00,
2014-12-17 08:07:00,29.7,26.0,30.00,SSE,148,0.0,0.0,86,0.00,,OVC018,0.01,VWS V14.01,2014-12-17 13:07:00,
2014-12-17 08:12:00,29.6,25.6,30.00,SSE,159,0.0,0.0,85,0.00,,OVC018,0.01,VWS V14.01,2014-12-17 13:12:00,
2014-12-17 08:17:00,29.6,25.6,30.00,South,173,0.0,0.0,85,0.00,,OVC018,0.01,VWS V14.01,2014-12-17 13:17:00,
2014-12-17 08:22:00,29.6,25.6,30.00,West,265,0.0,0.0,85,0.00,,OVC018,0.01,VWS V14.01,2014-12-17 13:22:00,
2014-12-17 08:27:00,29.6,25.6,30.00,West,261,0.0,0.0,85,0.00,,OVC018,0.01,VWS V14.01,2014-12-17 13:27:00,
2014-12-17 08:32:00,29.6,25.6,30.00,South,181,0.0,0.0,85,0.00,,OVC018,0.01,VWS V14.01,2014-12-17 13:32:00,
2014-12-17 08:37:00,29.7,25.8,30.00,SE,126,0.0,0.0,85,0.00,,OVC018,0.01,VWS V14.01,2014-12-17 13:37:00,
2014-12-17 08:42:00,29.7,25.8,30.00,East,94,0.0,0.0,85,0.00,,OVC018,0.01,VWS V14.01,2014-12-17 13:42:00,
2014-12-17 08:47:00,29.7,25.8,30.00,West,275,0.0,0.0,85,0.00,,OVC018,0.01,VWS V14.01,2014-12-17 13:47:00,
2014-12-17 08:52:00,29.7,25.8,30.00,South,174,0.0,0.0,85,0.00,,OVC018,0.01,VWS V14.01,2014-12-17 13:52:00,
2014-12-17 08:57:00,29.6,25.6,30.00,SSE,166,0.0,0.0,85,0.00,,OVC018,0.01,VWS V14.01,2014-12-17 13:57:00,
2014-12-17 09:02:00,29.6,25.9,30.00,West,263,0.0,0.0,86,0.00,,OVC023,0.01,VWS V14.01,2014-12-17 14:02:00,
2014-12-17 09:07:00,29.6,25.9,30.01,SSE,165,0.0,0.0,86,0.00,,OVC023,0.01,VWS V14.01,2014-12-17 14:07:00,
2014-12-17 09:12:00,29.6,25.9,30.00,WNW,292,0.0,0.0,86,0.00,,OVC023,0.01,VWS V14.01,2014-12-17 14:12:00,
2014-12-17 09:17:00,29.6,25.9,30.01,SSW,193,0.0,0.0,86,0.00,,OVC023,0.01,VWS V14.01,2014-12-17 14:17:00,
2014-12-17 09:22:00,29.6,25.6,30.01,SW,217,0.0,0.0,85,0.00,,OVC023,0.01,VWS V14.01,2014-12-17 14:22:00,
2014-12-17 09:27:00,29.6,25.6,30.01,West,273,0.0,0.0,85,0.00,,OVC023,0.01,VWS V14.01,2014-12-17 14:27:00,
2014-12-17 09:32:00,29.7,25.8,30.01,SSE,154,0.0,0.0,85,0.00,,OVC023,0.01,VWS V14.01,2014-12-17 14:32:00,
2014-12-17 09:37:00,29.7,26.0,30.01,SSW,203,0.0,0.0,86,0.00,,OVC023,0.01,VWS V14.01,2014-12-17 14:37:00,
2014-12-17 09:42:00,29.7,26.0,30.02,South,184,0.0,0.0,86,0.00,,OVC023,0.01,VWS V14.01,2014-12-17 14:42:00,
2014-12-17 09:47:00,29.7,25.8,30.02,SSE,155,0.0,0.0,85,0.00,,OVC023,0.01,VWS V14.01,2014-12-17 14:47:00,
2014-12-17 09:52:00,29.7,25.8,30.02,SSE,161,0.0,0.0,85,0.00,,OVC023,0.01,VWS V14.01,2014-12-17 14:52:00,
2014-12-17 09:57:00,29.8,25.9,30.02,SE,126,0.0,0.0,85,0.00,,OVC019,0.01,VWS V14.01,2014-12-17 14:57:00,
2014-12-17 10:02:00,29.8,25.9,30.02,SW,225,0.0,0.0,85,0.00,,OVC019,0.01,VWS V14.01,2014-12-17 15:02:00,
2014-12-17 10:08:00,29.8,25.6,30.03,South,172,0.0,0.0,84,0.00,,OVC019,0.01,VWS V14.01,2014-12-17 15:08:00,
2014-12-17 10:13:00,29.9,25.7,30.03,ESE,103,0.0,0.0,84,0.00,,OVC019,0.01,VWS V14.01,2014-12-17 15:13:00,
2014-12-17 10:18:00,29.9,25.7,30.03,South,169,0.0,0.0,84,0.00,,OVC019,0.01,VWS V14.01,2014-12-17 15:18:00,
2014-12-17 10:23:00,29.8,25.6,30.03,South,169,0.0,0.0,84,0.00,,OVC019,0.01,VWS V14.01,2014-12-17 15:23:00,
2014-12-17 10:28:00,29.8,25.9,30.04,South,172,0.0,0.0,85,0.00,,OVC019,0.01,VWS V14.01,2014-12-17 15:28:00,
2014-12-17 10:33:00,29.7,25.8,30.04,East,87,0.0,0.0,85,0.00,,OVC019,0.01,VWS V14.01,2014-12-17 15:33:00,
2014-12-17 10:38:00,29.7,25.8,30.04,South,172,0.0,0.0,85,0.00,,OVC019,0.01,VWS V14.01,2014-12-17 15:38:00,
2014-12-17 10:43:00,29.6,25.6,30.04,WSW,238,0.0,0.0,85,0.00,,OVC019,0.01,VWS V14.01,2014-12-17 15:43:00,
2014-12-17 10:48:00,29.6,25.6,30.04,SW,217,0.0,0.0,85,0.00,,OVC019,0.01,VWS V14.01,2014-12-17 15:48:00,
2014-12-17 10:53:00,29.7,25.5,30.03,SW,215,0.0,0.0,84,0.00,,OVC019,0.01,VWS V14.01,2014-12-17 15:53:00,
2014-12-17 10:58:00,29.7,25.5,30.04,SSW,200,0.0,0.0,84,0.00,,OVC023,0.01,VWS V14.01,2014-12-17 15:58:00,
2014-12-17 11:03:00,29.8,25.6,30.04,South,188,0.0,0.0,84,0.00,,OVC023,0.01,VWS V14.01,2014-12-17 16:03:00,
2014-12-17 11:08:00,29.8,25.6,30.04,NW,321,0.0,0.0,84,0.00,,OVC023,0.01,VWS V14.01,2014-12-17 16:08:00,
2014-12-17 11:13:00,29.7,25.2,30.04,SSE,163,0.0,0.0,83,0.00,,OVC023,0.01,VWS V14.01,2014-12-17 16:13:00,
2014-12-17 11:18:00,29.8,25.6,30.04,SE,144,0.0,0.0,84,0.00,,OVC023,0.01,VWS V14.01,2014-12-17 16:18:00,
2014-12-17 11:23:00,29.7,25.2,30.04,WNW,289,0.0,0.0,83,0.00,,OVC023,0.01,VWS V14.01,2014-12-17 16:23:00,
2014-12-17 11:28:00,29.6,25.1,30.04,South,178,0.0,0.0,83,0.00,,OVC023,0.01,VWS V14.01,2014-12-17 16:28:00,
2014-12-17 11:33:00,29.5,25.3,30.04,South,184,0.0,0.0,84,0.00,,OVC023,0.01,VWS V14.01,2014-12-17 16:33:00,
2014-12-17 11:38:00,29.5,25.3,30.04,NW,305,0.0,0.0,84,0.00,,OVC023,0.01,VWS V14.01,2014-12-17 16:38:00,
2014-12-17 11:43:00,29.4,24.6,30.04,SSE,167,0.0,0.0,82,0.00,,OVC023,0.01,VWS V14.01,2014-12-17 16:43:00,
2014-12-17 11:48:00,29.4,24.9,30.04,South,171,0.0,0.0,83,0.00,,OVC023,0.01,VWS V14.01,2014-12-17 16:48:00,
2014-12-17 11:53:00,29.4,24.9,30.03,South,183,0.0,0.0,83,0.00,,OVC023,0.01,VWS V14.01,2014-12-17 16:53:00,
2014-12-17 11:58:00,29.4,24.9,30.03,South,178,0.0,0.0,83,0.00,,OVC022,0.01,VWS V14.01,2014-12-17 16:58:00,
2014-12-17 12:03:00,29.2,24.7,30.03,South,175,0.0,0.0,83,0.00,,OVC022,0.01,VWS V14.01,2014-12-17 17:03:00,
2014-12-17 12:08:00,29.1,24.3,30.03,ESE,119,0.0,0.0,82,0.00,,OVC022,0.01,VWS V14.01,2014-12-17 17:08:00,
2014-12-17 12:13:00,28.9,24.1,30.03,SE,144,0.0,0.0,82,0.00,,OVC022,0.01,VWS V14.01,2014-12-17 17:13:00,
2014-12-17 12:18:00,28.8,23.7,30.03,SSW,196,0.0,0.0,81,0.00,,OVC022,0.01,VWS V14.01,2014-12-17 17:18:00,
2014-12-17 12:23:00,28.9,23.8,30.03,WSW,248,0.0,0.0,81,0.00,,OVC022,0.01,VWS V14.01,2014-12-17 17:23:00,
2014-12-17 12:28:00,28.9,23.8,30.03,SSW,202,0.0,0.0,81,0.00,,OVC022,0.01,VWS V14.01,2014-12-17 17:28:00,
2014-12-17 12:33:00,29.0,23.9,30.03,South,170,0.0,0.0,81,0.00,,OVC022,0.01,VWS V14.01,2014-12-17 17:33:00,
2014-12-17 12:38:00,28.8,23.7,30.03,NW,306,0.0,0.0,81,0.00,,OVC022,0.01,VWS V14.01,2014-12-17 17:38:00,
2014-12-17 12:43:00,28.8,23.7,30.03,South,187,0.0,0.0,81,0.00,,OVC022,0.01,VWS V14.01,2014-12-17 17:43:00,
2014-12-17 12:48:00,28.8,23.7,30.03,South,172,0.0,0.0,81,0.00,,OVC022,0.01,VWS V14.01,2014-12-17 17:48:00,
2014-12-17 12:54:00,28.7,23.6,30.03,SSE,163,0.0,0.0,81,0.00,,OVC022,0.01,VWS V14.01,2014-12-17 17:54:00,
2014-12-17 12:59:00,28.7,23.6,30.03,SSE,150,0.0,0.0,81,0.00,,OVC019,0.01,VWS V14.01,2014-12-17 17:59:00,
2014-12-17 13:04:00,28.5,23.4,30.04,SSE,156,0.0,0.0,81,0.00,,OVC019,0.01,VWS V14.01,2014-12-17 18:04:00,
2014-12-17 13:09:00,28.4,23.6,30.04,South,182,0.0,0.0,82,0.00,,OVC019,0.01,VWS V14.01,2014-12-17 18:09:00,
2014-12-17 13:14:00,28.3,23.5,30.04,South,171,0.0,0.0,82,0.00,,OVC019,0.01,VWS V14.01,2014-12-17 18:14:00,
2014-12-17 13:19:00,28.1,23.0,30.04,South,175,0.0,0.0,81,0.00,,OVC019,0.01,VWS V14.01,2014-12-17 18:19:00,
2014-12-17 13:24:00,28.1,23.3,30.04,SSE,163,0.0,0.0,82,0.00,,OVC019,0.01,VWS V14.01,2014-12-17 18:24:00,
2014-12-17 13:29:00,28.1,23.0,30.04,NNW,331,0.0,0.0,81,0.00,,OVC019,0.01,VWS V14.01,2014-12-17 18:29:00,
2014-12-17 13:34:00,28.1,23.0,30.04,SSW,192,0.0,0.0,81,0.00,,OVC019,0.01,VWS V14.01,2014-12-17 18:34:00,
2014-12-17 13:39:00,28.2,23.1,30.03,SW,229,0.0,0.0,81,0.00,,OVC019,0.01,VWS V14.01,2014-12-17 18:39:00,
2014-12-17 13:44:00,28.2,23.1,30.04,SSE,151,0.0,0.0,81,0.00,,OVC019,0.01,VWS V14.01,2014-12-17 18:44:00,
2014-12-17 13:49:00,28.2,23.1,30.04,NNW,332,0.0,0.0,81,0.00,,OVC019,0.01,VWS V14.01,2014-12-17 18:49:00,
2014-12-17 13:54:00,28.2,23.4,30.03,East,92,0.0,0.0,82,0.00,,OVC019,0.01,VWS V14.01,2014-12-17 18:54:00,
2014-12-17 13:59:00,28.1,23.3,30.04,SSW,213,0.0,0.0,82,0.00,,OVC023,0.01,VWS V14.01,2014-12-17 18:59:00,
2014-12-17 14:04:00,28.1,23.3,30.04,WSW,256,0.0,0.0,82,0.00,,OVC023,0.01,VWS V14.01,2014-12-17 19:04:00,
2014-12-17 14:09:00,28.2,23.4,30.04,SSW,196,0.0,0.0,82,0.00,,OVC023,0.01,VWS V14.01,2014-12-17 19:09:00,
2014-12-17 14:14:00,28.1,23.0,30.04,NNE,21,0.0,0.0,81,0.00,,OVC023,0.01,VWS V14.01,2014-12-17 19:14:00,
2014-12-17 14:19:00,28.1,23.3,30.04,NE,49,0.0,0.0,82,0.00,,OVC023,0.01,VWS V14.01,2014-12-17 19:19:00,
2014-12-17 14:24:00,28.1,23.3,30.04,SSE,162,0.0,0.0,82,0.00,,OVC023,0.01,VWS V14.01,2014-12-17 19:24:00,
2014-12-17 14:29:00,28.0,22.9,30.04,West,263,0.0,0.0,81,0.00,,OVC023,0.01,VWS V14.01,2014-12-17 19:29:00,
2014-12-17 14:34:00,27.9,22.8,30.04,SSW,199,0.0,0.0,81,0.00,,OVC023,0.01,VWS V14.01,2014-12-17 19:34:00,
2014-12-17 14:39:00,27.9,23.1,30.04,SSE,153,0.0,0.0,82,0.00,,OVC023,0.01,VWS V14.01,2014-12-17 19:39:00,
2014-12-17 14:44:00,27.9,23.1,30.04,SSW,199,0.0,0.0,82,0.00,,OVC023,0.01,VWS V14.01,2014-12-17 19:44:00,
2014-12-17 14:49:00,27.8,22.7,30.04,SSE,161,0.0,0.0,81,0.00,,OVC023,0.01,VWS V14.01,2014-12-17 19:49:00,
2014-12-17 14:54:00,27.8,23.0,30.05,South,173,0.0,0.0,82,0.00,,OVC023,0.01,VWS V14.01,2014-12-17 19:54:00,
2014-12-17 14:59:00,27.7,22.6,30.05,South,169,0.0,0.0,81,0.00,,,0.01,VWS V14.01,2014-12-17 19:59:00,
2014-12-17 15:04:00,27.7,22.6,30.05,SSE,167,0.0,0.0,81,0.00,,,0.01,VWS V14.01,2014-12-17 20:04:00,
2014-12-17 15:09:00,27.6,22.5,30.05,SW,222,0.0,0.0,81,0.00,,,0.01,VWS V14.01,2014-12-17 20:09:00,
2014-12-17 15:14:00,27.7,22.6,30.05,West,263,0.0,0.0,81,0.00,,,0.01,VWS V14.01,2014-12-17 20:14:00,
2014-12-17 15:19:00,27.7,22.4,30.05,South,176,0.0,0.0,80,0.00,,,0.01,VWS V14.01,2014-12-17 20:19:00,
2014-12-17 15:24:00,27.6,22.2,30.05,WSW,253,0.0,0.0,80,0.00,,,0.01,VWS V14.01,2014-12-17 20:24:00,
2014-12-17 15:29:00,27.6,22.2,30.05,WSW,238,0.0,0.0,80,0.00,,,0.01,VWS V14.01,2014-12-17 20:29:00,
2014-12-17 15:34:00,27.6,22.2,30.05,West,275,0.0,0.0,80,0.00,,,0.01,VWS V14.01,2014-12-17 20:34:00,
2014-12-17 15:39:00,27.6,22.0,30.05,South,171,0.0,0.0,79,0.00,,,0.01,VWS V14.01,2014-12-17 20:39:00,
2014-12-17 15:45:00,27.5,22.1,30.05,South,175,0.0,0.0,80,0.00,,,0.01,VWS V14.01,2014-12-17 20:45:00,
2014-12-17 15:50:00,27.5,22.1,30.05,WSW,249,0.0,0.0,80,0.00,,,0.01,VWS V14.01,2014-12-17 20:50:00,
2014-12-17 15:55:00,27.5,22.1,30.05,WNW,290,0.0,0.0,80,0.00,,,0.01,VWS V14.01,2014-12-17 20:55:00,
2014-12-17 16:00:00,27.4,22.0,30.06,South,171,0.0,0.0,80,0.00,,,0.01,VWS V14.01,2014-12-17 21:00:00,
2014-12-17 16:05:00,27.4,22.0,30.06,SSE,156,0.0,0.0,80,0.00,,,0.01,VWS V14.01,2014-12-17 21:05:00,
2014-12-17 16:10:00,27.4,22.4,30.05,West,262,0.0,0.0,81,0.00,,,0.01,VWS V14.01,2014-12-17 21:10:00,
2014-12-17 16:15:00,27.4,22.4,30.05,SSW,208,0.0,0.0,81,0.00,,,0.01,VWS V14.01,2014-12-17 21:15:00,
2014-12-17 16:20:00,27.3,22.2,30.05,WNW,290,0.0,0.0,81,0.00,,,0.01,VWS V14.01,2014-12-17 21:20:00,
2014-12-17 16:25:00,27.3,22.2,30.06,WNW,284,0.0,0.0,81,0.00,,,0.01,VWS V14.01,2014-12-17 21:25:00,
2014-12-17 16:30:00,27.2,22.1,30.06,West,276,0.0,0.0,81,0.00,,,0.01,VWS V14.01,2014-12-17 21:30:00,
2014-12-17 16:35:00,27.2,22.1,30.06,SE,146,0.0,0.0,81,0.00,,,0.01,VWS V14.01,2014-12-17 21:35:00,
2014-12-17 16:40:00,27.2,22.1,30.06,West,271,0.0,0.0,81,0.00,,,0.01,VWS V14.01,2014-12-17 21:40:00,
2014-12-17 16:45:00,27.1,22.1,30.06,SW,216,0.0,0.0,81,0.00,,,0.01,VWS V14.01,2014-12-17 21:45:00,
2014-12-17 16:50:00,27.1,21.8,30.06,SW,226,0.0,0.0,80,0.00,,,0.01,VWS V14.01,2014-12-17 21:50:00,
2014-12-17 16:55:00,27.1,21.8,30.06,SSE,153,0.0,0.0,80,0.00,,,0.01,VWS V14.01,2014-12-17 21:55:00,
2014-12-17 17:00:00,27.1,21.5,30.06,WNW,300,0.0,0.0,79,0.00,,,0.01,VWS V14.01,2014-12-17 22:00:00,
2014-12-17 17:05:00,27.1,21.2,30.06,West,261,0.0,0.0,78,0.00,,,0.01,VWS V14.01,2014-12-17 22:05:00,
2014-12-17 17:10:00,27.0,21.1,30.06,South,175,0.0,0.0,78,0.00,,,0.01,VWS V14.01,2014-12-17 22:10:00,
2014-12-17 17:15:00,27.0,21.1,30.07,WNW,285,0.0,0.0,78,0.00,,,0.01,VWS V14.01,2014-12-17 22:15:00,
2014-12-17 17:20:00,27.0,21.1,30.07,WSW,240,0.0,0.0,78,0.00,,,0.01,VWS V14.01,2014-12-17 22:20:00,
2014-12-17 17:25:00,27.0,21.1,30.07,South,172,0.0,0.0,78,0.00,,,0.01,VWS V14.01,2014-12-17 22:25:00,
2014-12-17 17:30:00,27.0,21.4,30.07,South,186,0.0,0.0,79,0.00,,,0.01,VWS V14.01,2014-12-17 22:30:00,
2014-12-17 17:35:00,27.0,21.4,30.07,SSW,205,0.0,0.0,79,0.00,,,0.01,VWS V14.01,2014-12-17 22:35:00,
2014-12-17 17:40:00,27.0,21.1,30.07,SW,231,0.0,0.0,78,0.00,,,0.01,VWS V14.01,2014-12-17 22:40:00,
2014-12-17 17:45:00,27.0,21.1,30.08,SW,217,0.0,0.0,78,0.00,,,0.01,VWS V14.01,2014-12-17 22:45:00,
2014-12-17 17:50:00,27.0,21.1,30.08,SSE,159,0.0,0.0,78,0.00,,,0.01,VWS V14.01,2014-12-17 22:50:00,
2014-12-17 17:56:00,26.9,21.0,30.08,SW,225,0.0,0.0,78,0.00,,,0.01,VWS V14.01,2014-12-17 22:56:00,
2014-12-17 18:01:00,26.9,21.0,30.08,SSW,208,0.0,0.0,78,0.00,,,0.01,VWS V14.01,2014-12-17 23:01:00,
2014-12-17 18:06:00,26.9,21.0,30.08,West,269,0.0,0.0,78,0.00,,,0.01,VWS V14.01,2014-12-17 23:06:00,
2014-12-17 18:11:00,26.9,21.0,30.09,SSW,203,0.0,0.0,78,0.00,,,0.01,VWS V14.01,2014-12-17 23:11:00,
2014-12-17 18:16:00,26.8,20.9,30.09,East,98,0.0,0.0,78,0.00,,,0.01,VWS V14.01,2014-12-17 23:16:00,
2014-12-17 18:21:00,26.8,21.2,30.09,WSW,238,0.0,0.0,79,0.00,,,0.01,VWS V14.01,2014-12-17 23:21:00,
2014-12-17 18:26:00,26.8,21.2,30.09,WSW,237,0.0,0.0,79,0.00,,,0.01,VWS V14.01,2014-12-17 23:26:00,
2014-12-17 18:31:00,26.7,21.1,30.10,SSE,162,0.0,0.0,79,0.00,,,0.01,VWS V14.01,2014-12-17 23:31:00,
2014-12-17 18:36:00,26.7,21.1,30.10,WSW,252,0.0,0.0,79,0.00,,,0.01,VWS V14.01,2014-12-17 23:36:00,
2014-12-17 18:41:00,26.7,20.8,30.10,SSE,164,0.0,0.0,78,0.00,,,0.01,VWS V14.01,2014-12-17 23:41:00,
2014-12-17 18:46:00,26.7,21.1,30.10,West,280,0.0,0.0,79,0.00,,,0.01,VWS V14.01,2014-12-17 23:46:00,
2014-12-17 18:51:00,26.7,21.1,30.10,WSW,246,0.0,0.0,79,0.00,,,0.01,VWS V14.01,2014-12-17 23:51:00,
2014-12-17 18:56:00,26.7,21.1,30.10,West,259,0.0,0.0,79,0.00,,,0.01,VWS V14.01,2014-12-17 23:56:00,
2014-12-17 19:01:00,26.7,20.8,30.11,WNW,302,0.0,0.0,78,0.00,,,0.01,VWS V14.01,2014-12-18 00:01:00,
2014-12-17 19:06:00,26.6,20.7,30.11,South,175,0.0,0.0,78,0.00,,,0.01,VWS V14.01,2014-12-18 00:06:00,
2014-12-17 19:11:00,26.6,20.7,30.11,South,171,0.0,0.0,78,0.00,,,0.01,VWS V14.01,2014-12-18 00:11:00,
2014-12-17 19:16:00,26.6,20.7,30.11,SSE,161,0.0,0.0,78,0.00,,,0.01,VWS V14.01,2014-12-18 00:16:00,
2014-12-17 19:21:00,26.6,20.7,30.11,SW,232,0.0,0.0,78,0.00,,,0.01,VWS V14.01,2014-12-18 00:21:00,
2014-12-17 19:26:00,26.5,20.6,30.11,WSW,251,0.0,0.0,78,0.00,,,0.01,VWS V14.01,2014-12-18 00:26:00,
2014-12-17 19:31:00,26.5,20.6,30.11,South,189,0.0,0.0,78,0.00,,,0.01,VWS V14.01,2014-12-18 00:31:00,
2014-12-17 19:36:00,26.5,20.6,30.11,WNW,288,0.0,0.0,78,0.00,,,0.01,VWS V14.01,2014-12-18 00:36:00,
2014-12-17 19:41:00,26.5,20.9,30.11,WSW,239,0.0,0.0,79,0.00,,,0.01,VWS V14.01,2014-12-18 00:41:00,
2014-12-17 19:46:00,26.5,20.9,30.11,WSW,258,0.0,0.0,79,0.00,,,0.01,VWS V14.01,2014-12-18 00:46:00,
2014-12-17 19:51:00,26.4,20.8,30.11,SW,229,0.0,0.0,79,0.00,,,0.01,VWS V14.01,2014-12-18 00:51:00,
2014-12-17 19:56:00,26.4,20.8,30.11,SSW,199,0.0,0.0,79,0.00,,,0.01,VWS V14.01,2014-12-18 00:56:00,
2014-12-17 20:01:00,26.3,20.7,30.11,SSW,200,0.0,0.0,79,0.00,,,0.01,VWS V14.01,2014-12-18 01:01:00,
2014-12-17 20:06:00,26.2,20.6,30.11,SSE,161,0.0,0.0,79,0.00,,,0.01,VWS V14.01,2014-12-18 01:06:00,
2014-12-17 20:11:00,26.2,20.6,30.11,SSE,160,0.0,0.0,79,0.00,,,0.01,VWS V14.01,2014-12-18 01:11:00,
2014-12-17 20:16:00,26.0,20.4,30.11,South,172,0.0,0.0,79,0.00,,,0.01,VWS V14.01,2014-12-18 01:16:00,
2014-12-17 20:21:00,25.9,20.3,30.11,South,176,0.0,0.0,79,0.00,,,0.01,VWS V14.01,2014-12-18 01:21:00,
2014-12-17 20:26:00,25.8,20.2,30.11,ENE,71,0.0,0.0,79,0.00,,,0.01,VWS V14.01,2014-12-18 01:26:00,
2014-12-17 20:32:00,25.8,20.2,30.12,SSE,157,0.0,0.0,79,0.00,,,0.01,VWS V14.01,2014-12-18 01:32:00,
2014-12-17 20:37:00,25.7,20.1,30.11,SSE,166,0.0,0.0,79,0.00,,,0.01,VWS V14.01,2014-12-18 01:37:00,
2014-12-17 20:42:00,25.6,20.0,30.11,SSE,168,0.0,0.0,79,0.00,,,0.01,VWS V14.01,2014-12-18 01:42:00,
2014-12-17 20:47:00,25.6,20.3,30.11,SW,215,0.0,0.0,80,0.00,,,0.01,VWS V14.01,2014-12-18 01:47:00,
2014-12-17 20:52:00,25.5,20.2,30.11,SSE,165,0.0,0.0,80,0.00,,,0.01,VWS V14.01,2014-12-18 01:52:00,
2014-12-17 20:57:00,25.4,20.1,30.11,South,169,0.0,0.0,80,0.00,,,0.01,VWS V14.01,2014-12-18 01:57:00,
2014-12-17 21:02:00,25.5,20.2,30.11,West,262,0.0,0.0,80,0.00,,FEW050,0.01,VWS V14.01,2014-12-18 02:02:00,
2014-12-17 21:07:00,25.5,20.2,30.11,SSE,158,0.0,0.0,80,0.00,,FEW050,0.01,VWS V14.01,2014-12-18 02:07:00,
2014-12-17 21:12:00,25.5,20.2,30.11,SE,140,0.0,0.0,80,0.00,,FEW050,0.01,VWS V14.01,2014-12-18 02:12:00,
2014-12-17 21:17:00,25.5,20.2,30.11,WSW,244,0.0,0.0,80,0.00,,FEW050,0.01,VWS V14.01,2014-12-18 02:17:00,
2014-12-17 21:22:00,25.6,20.3,30.12,West,273,0.0,0.0,80,0.00,,FEW050,0.01,VWS V14.01,2014-12-18 02:22:00,
2014-12-17 21:27:00,25.6,20.3,30.12,SSE,168,0.0,0.0,80,0.00,,FEW050,0.01,VWS V14.01,2014-12-18 02:27:00,
2014-12-17 21:32:00,25.6,20.0,30.12,SW,216,0.0,0.0,79,0.00,,FEW050,0.01,VWS V14.01,2014-12-18 02:32:00,
2014-12-17 21:37:00,25.7,20.4,30.12,West,262,0.0,0.0,80,0.00,,FEW050,0.01,VWS V14.01,2014-12-18 02:37:00,
2014-12-17 21:42:00,25.6,20.0,30.11,SW,225,0.0,0.0,79,0.00,,FEW050,0.01,VWS V14.01,2014-12-18 02:42:00,
2014-12-17 21:47:00,25.7,20.1,30.12,SSE,167,0.0,0.0,79,0.00,,FEW050,0.01,VWS V14.01,2014-12-18 02:47:00,
2014-12-17 21:52:00,25.8,20.2,30.12,South,175,0.0,0.0,79,0.00,,FEW050,0.01,VWS V14.01,2014-12-18 02:52:00,
2014-12-17 21:57:00,25.8,20.2,30.12,SE,142,0.0,0.0,79,0.00,,FEW050,0.01,VWS V14.01,2014-12-18 02:57:00,
2014-12-17 22:02:00,25.8,20.5,30.12,South,171,0.0,0.0,80,0.00,,OVC050,0.01,VWS V14.01,2014-12-18 03:02:00,
2014-12-17 22:07:00,25.9,20.6,30.12,South,175,0.0,0.0,80,0.00,,OVC050,0.01,VWS V14.01,2014-12-18 03:07:00,
2014-12-17 22:12:00,25.9,20.3,30.11,ESE,118,0.0,0.0,79,0.00,,OVC050,0.01,VWS V14.01,2014-12-18 03:12:00,
2014-12-17 22:17:00,25.9,20.6,30.12,South,190,0.0,0.0,80,0.00,,OVC050,0.01,VWS V14.01,2014-12-18 03:17:00,
2014-12-17 22:22:00,26.0,20.7,30.12,South,183,0.0,0.0,80,0.00,,OVC050,0.01,VWS V14.01,2014-12-18 03:22:00,
2014-12-17 22:27:00,26.0,20.7,30.12,SSW,200,0.0,0.0,80,0.00,,OVC050,0.01,VWS V14.01,2014-12-18 03:27:00,
2014-12-17 22:32:00,26.0,20.7,30.12,WNW,284,0.0,0.0,80,0.00,,OVC050,0.01,VWS V14.01,2014-12-18 03:32:00,
2014-12-17 22:37:00,26.0,20.7,30.12,West,271,0.0,0.0,80,0.00,,OVC050,0.01,VWS V14.01,2014-12-18 03:37:00,
2014-12-17 22:42:00,26.1,21.1,30.12,SSE,166,0.0,0.0,81,0.00,,OVC050,0.01,VWS V14.01,2014-12-18 03:42:00,
2014-12-17 22:47:00,26.1,21.1,30.12,South,176,0.0,0.0,81,0.00,,OVC047,0.01,VWS V14.01,2014-12-18 03:47:00,